Location: Beuerbach
(48.1459°N, 10.9174°E)
Time: 01:01:29
(UTC+00:00)

Meteor 1-21 - Pass Details

Date: 13 August 2024
Orbit: 845 x 885 km, 81.2° (Epoch: 09 September)

Event Time Altitude Azimuth Distance (km) Brightness Sun altitude
Rises 01:51:08 0° 332° (NNW) 3,418 7.7 -19.0°
Reaches altitude 10° 01:54:45 10° 308° (NW) 2,480 6.6 -18.6°
Maximum altitude 01:57:30 14° 279° (W) 2,208 6.1 -18.3°
Enters shadow 01:57:57 14° 274° (W) 2,216 6.0 -18.3°
